Retour au catalogue

FLOCK 4G 34

ActifScienceSSO
NORAD 62650·PAYLOAD·🇺🇸 United States

Lancé Jan 14, 2025 depuis Vandenberg Space Force Base

Loading…

Prochains Passages (prochaines 24 heures)

TLE

FraisSource: Space-Track

Époque: Sep 14, 2026, 15:51 UTC

1 62650U 25009AT  26257.66051926  .00007762  00000-0  26464-3 0  9999
2 62650  97.3914 338.8298 0002094  36.3921 323.7462 15.30639390 92595

Suivez FLOCK 4G 34 en temps réel avec AllMySat

Download on the App Store